Regional Weather Roundup
Issued by NWS

Home | Current Version | Previous Version | Text Only | Print | Product List | Glossary Off
Versions: 1 2 3 4 5 6 7 8 9 10 11 12 13 14 15 16 17 18 19 20 21 22 23 24 25 26 27 28 29 30 31 32 33 34 35 36 37 38 39 40 41 42 43 44 45 46 47 48 49 50

792
ASUS43 KDTX 241510
RWRMI
MICHIGAN HOURLY REGIONAL WEATHER ROUNDUP
NATIONAL WEATHER SERVICE DETROIT/PONTIAC MI
1100 AM EDT MON APR 24 2017

NOTE: "FAIR" INDICATES FEW OR NO CLOUDS BELOW 12,000 FEET WITH NO
SIGNIFICANT WEATHER AND/OR OBSTRUCTION TO VISIBILITY.

MIZ047>049-052>055-059>063-066>070-074>076-081>083-241600-
SOUTHEAST LOWER MICHIGAN

CITY           SKY/WX    TMP DP  RH WIND       PRES   REMARKS
ADRIAN         SUNNY     58  40  51 E16       30.06F
ALMA           SUNNY     52  40  63 NE6       30.09F
ANN ARBOR      SUNNY     60  39  45 E7        30.07F
BAD AXE        SUNNY     54  42  63 E7        30.12S
CARO           SUNNY     59  40  49 SE6       30.09F
DETROIT CITY   SUNNY     55  42  61 E10       30.09S
DETROIT        SUNNY     60  39  45 E10       30.08F
FLINT          SUNNY     58  41  53 E5        30.08F
GROSSE ILE     SUNNY     58  44  59 NE10      30.07S
HILLSDALE      SUNNY     61  32  33 E9G17     30.05S
HOWELL         SUNNY     62  32  32 SE12      30.08S

CITY           SKY/WX    TMP DP  RH WIND       PRES   REMARKS
JACKSON        SUNNY     62  36  37 SE8       30.06F
LAMBERTVILLE   SUNNY     57  37  46 E13G21    30.06S
LANSING        SUNNY     60  38  43 CALM      30.08F
LAPEER         FAIR      56  41  56 E6        30.09F
MASON          SUNNY     60  42  51 E5        30.08S
MONROE         SUNNY     60  40  47 E14G23    30.07S
MT. CLEMENS    SUNNY     54  43  66 NE6       30.09S
PONTIAC        SUNNY     60  37  42 SE6       30.08S
PORT HOPE        N/A     42  39  89 E9        30.12S
PORT HURON     SUNNY     59  41  51 SE6       30.10S
TRI CITIES     SUNNY     53  42  66 E9        30.11F
MIDLAND        FAIR      55  40  58 E6        30.09F
TROY           SUNNY     58  36  43 E8        30.10F
SAGINAW HB     SUNNY     54  39  58 NE5       30.09F
$$
MIZ043>046-050>051-056>058-064>065-071>073-077>080-241600-
SOUTHWEST LOWER MICHIGAN

CITY           SKY/WX    TMP DP  RH WIND       PRES   REMARKS
BATTLE CREEK   SUNNY     62  33  33 E13       30.06F
BENTON HARBOR    N/A     65  30  27 SE12      30.03F
BIG RAPIDS     SUNNY     54  38  54 SE7       30.07S
COLDWATER      SUNNY     62  32  31 E10       30.05S
FREMONT        FAIR      56  37  49 SE9       30.05F
HOLLAND        SUNNY     59  43  55 E7        30.05F
GRAND RAPIDS   MOSUNNY   57  41  55 E7        30.06F
IONIA          FAIR      54  40  58 E6        30.07F
KALAMAZOO      SUNNY     64  31  28 SE7       30.06F
LUDINGTON      SUNNY     58  42  54 SE8       30.04S
MARSHALL       SUNNY     62  36  37 E10       30.06S
MOUNT PLEASANT SUNNY     53  39  59 SE3       30.08F
MUSKEGON       MOSUNNY   60  39  45 SE8       30.05F
SOUTH HAVEN    SUNNY     63  33  33 SE7       30.03F
$$
MIZ016>042-241600-
NORTHERN LOWER MICHIGAN

CITY           SKY/WX    TMP DP  RH WIND       PRES   REMARKS
ALPENA         SUNNY     44  35  70 E12       30.16F
BEAVER ISLAND  SUNNY     43  34  70 E14       30.10F
BELLAIRE       SUNNY     54  33  45 S9        30.07F
CADILLAC       SUNNY     53  37  54 SE8       30.06S
CHARLEVOIX     SUNNY     49  35  58 E12       30.10F
FRANKFORT      SUNNY     59  36  41 S6        30.04F
GAYLORD        SUNNY     51  34  52 SE13      30.08F
GRAYLING       SUNNY     53  36  52 E9        30.09F
HARBOR SPRINGS SUNNY     45  35  69 E14G21    30.10F
HOUGHTON LAKE  SUNNY     54  36  50 S9        30.09F
MANISTEE       SUNNY     59  38  45 SE8       30.03F
OSCODA         SUNNY     45  35  67 E6        30.14F
PELLSTON       MOSUNNY   45  33  63 SE14      30.12F
ROGERS CITY    PTSUNNY   41  33  71 E14G21    30.18S
TRAVERSE CITY  MOSUNNY   58  35  42 VRB3      30.04F
$$
MIZ007>008-015-241600-
EASTERN UPPER MICHIGAN

CITY           SKY/WX    TMP DP  RH WIND       PRES   REMARKS
KINROSS        SUNNY     39  26  59 E17G23    30.15F WCI  30
MACKINAC ISLAN SUNNY     37  29  72 E20G35    30.14S WCI  27
NEWBERRY       SUNNY     43  31  63 E10G18    30.11S
S. S. MARIE    MOSUNNY   42  25  50 E12G18    30.16F
MUNISING         N/A     46  30  53 SE9       30.05F
$$
MIZ004>006-011>014-085-241600-
CENTRAL UPPER MICHIGAN

CITY           SKY/WX    TMP DP  RH WIND       PRES   REMARKS
MANISTIQUE     SUNNY     41  35  79 E15G24    30.09F
ESCANABA       MOSUNNY   42  32  67 E15       30.06F
MENOMINEE      MOSUNNY   43  34  70 E6        30.05F
SAWYER-GWINN   SUNNY     39  28  65 SE7       30.04F WCI  34
$$
MIZ001>003-009>011-084-241600-
WESTERN UPPER MICHIGAN

CITY           SKY/WX    TMP DP  RH WIND       PRES   REMARKS
IRON MOUNTAIN  CLOUDY    38  27  64 SE10      30.01F WCI  31
HOUGHTON       PTSUNNY   37  28  70 E15G28    30.01F WCI  28
COPPER HARBOR    N/A     38  30  73 S9G20     30.06F WCI  31
IRONWOOD       CLOUDY    45  29  53 SE12      29.90
$$

ABBREVIATIONS USED IN REMARKS
   TC - TEMPERATURE IN CELSIUS
  WCI - WIND CHILL INDEX
   HX - HEAT INDEX
  VSB - VISIBILITY





USA.gov is the U.S. government's official web portal to all federal, state and local government web resources and services.